Flag for Argentina Weather past 2 weeks in Salta, Salta, Argentina

Now
45 °F

Overcast.


Feels Like: 45 °F
Forecast: 35 / 64 °F
Wind: 2 mph from North

Location: Salta Aerodrome

Current Time: Jul 5, 2015 at 1:26:12 AM

Latest Report: Jul 5, 2015 at 12:00 AM


Visibility: N/A

Pressure: 30.12 "Hg (26.07 "Hg at 1184m altitude)

Humidity: 87%

Dew point: 41 °F

Location of SaltaLocation

Historic Weather in Salta — Graph

°F

Salta temperature yesterday

Maximum temperature yesterday: 48 °F (at 2:00 PM)
Minimum temperature yesterday: 43 °F (at 6:00 AM)
Average temperature yesterday: 45 °F

Past Weeks' High & Low Weather Summary

 TemperatureHumidityPressure
High73 °F (Jun 30, 3:00 PM)100% (Jun 20, 5:00 AM)30.39 "Hg (Jun 20, 5:00 AM)
Low30 °F (Jun 20, 5:00 AM)23% (Jun 30, 3:00 PM)29.83 "Hg (Jun 29, 3:00 PM)
Average53 °F79%30.11 "Hg
* Reported Jun 19 11:00 PM — Jul 4 11:00 PM, Salta, Weather by CustomWeather, © 2015

Note: Actual official high and low records may vary slightly from our data, if they occured in-between our weather recording intervals... More about our weather records

Advertising

Salta weather history for previous 24 hours

 ConditionsComfort  
Time TempWeatherWind HumidityBarometerVisibility
11:00 PM
Sat, Jul 4
45 °FMostly cloudy.5 mph93%30.12 "HgN/A
10:00 PM45 °FMostly cloudy.9 mph93%30.12 "HgN/A
9:00 PM45 °FMostly cloudy.2 mph93%30.12 "HgN/A
8:00 PM45 °FMostly cloudy.8 mph93%30.12 "HgN/A
7:00 PM45 °FMostly cloudy.3 mph93%30.12 "HgN/A
6:00 PM46 °FMostly cloudy.3 mph87%30.12 "HgN/A
5:00 PM46 °FDrizzle. Mostly cloudy.5 mph93%30.12 "Hg3 mi
4:00 PM46 °FDrizzle. Mostly cloudy.6 mph93%30.12 "Hg1 mi
3:00 PM46 °FMore clouds than sun.50 mph93%30.15 "Hg1 mi
2:00 PM48 °FLight rain. Mostly cloudy.5 mph94%30.18 "Hg2 mi
1:00 PM46 °FLight rain. Mostly cloudy.5 mph93%30.24 "Hg2 mi
12:00 PM46 °FRain. Mostly cloudy.8 mph93%30.27 "Hg1 mi
11:00 AM46 °FMore clouds than sun.5 mph87%30.30 "HgN/A
10:00 AM46 °FOvercast.No wind87%30.27 "HgN/A
9:00 AM45 °FMore clouds than sun.2 mph87%30.27 "HgN/A
8:00 AM45 °FMore clouds than sun.3 mph93%30.27 "HgN/A
7:00 AM45 °FPartly cloudy.2 mph93%30.27 "HgN/A
6:00 AM43 °FPassing clouds.No wind93%30.27 "HgN/A
5:00 AM45 °FPassing clouds.3 mph87%30.27 "HgN/A
4:00 AM45 °FPartly cloudy.2 mph93%30.24 "HgN/A
3:00 AM45 °FClear.3 mph93%30.30 "Hg10 mi
2:00 AM45 °FClear.No wind93%30.30 "Hg10 mi
1:00 AM46 °FClear.3 mph93%30.30 "Hg10 mi
Weather by CustomWeather, © 2015

See weather overviewHow to use our weather pages